Location: CARMA
(37.2805°N, 118.1419°W)
Time: 00:15:47
(UTC-07:00)

Daily predictions for brighter satellites

Satellite Brightness Start Highest point End
(mag) Time Altitude Azimuth Time Altitude Azimuth Time Altitude Azimuth
CZ-4C R/B 4.4 03:25:40 28° NNE 03:26:57 30° NE 03:33:41 10° ESE
Cosmos 2369 Rocket 4.3 04:10:48 18° N 04:10:48 18° N 04:12:16 10° NNE
H-2A R/B 4.4 04:46:16 22° SSW 04:46:16 22° SSW 04:48:23 10° S
Cosmos 1953 Rocket 4.3 04:46:20 49° E 04:46:20 49° E 04:50:25 10° NNE
SJ 16-02 3.9 04:45:40 10° SE 04:48:55 21° E 04:52:11 10° NE
OAO 2 Rocket 3.5 04:51:42 62° SE 04:51:42 62° SE 04:56:05 10° E
Cosmos 1656 Rocket 3.6 04:51:02 71° S 04:51:41 87° ESE 04:57:24 10° NNE
CZ-4B DEB 4.4 04:51:44 10° NNE 04:57:12 69° ESE 05:02:42 10° S
NOSS 3-1 (C) 3.4 04:57:55 40° SSW 05:00:02 73° ESE 05:06:16 10° NE
Lacrosse 5 4.2 05:01:40 11° NNW 05:01:40 11° NNW 05:02:43 10° N
USA 229 DEB 3.7 05:00:36 54° W 05:01:23 57° NW 05:08:11 10° NNE
USA 229 3.7 05:00:40 54° W 05:01:28 57° NW 05:08:17 10° NNE
Tiangong 2 2.9 05:05:12 31° ENE 05:05:12 31° ENE 05:07:10 10° E
Cosmos 1356 Rocket 4.5 05:00:19 10° SSE 05:04:23 47° E 05:08:31 10° NNE
NOSS 3-1 (A) 3.9 05:01:34 18° S 05:05:41 55° ESE 05:11:45 10° NE
Cosmos 1943 Rocket 3.5 05:11:02 24° NNW 05:11:02 24° NNW 05:14:00 10° N
CZ-4B R/B 3.2 05:07:10 10° NNE 05:12:40 86° ESE 05:18:14 10° SSW
Nadezhda 1 Rocket 4.2 05:12:06 45° WSW 05:13:05 49° W 05:19:15 10° N
CZ-3 R/B 3.9 05:00:06 31° W 05:13:18 49° SSW 05:22:17 10° SE
USA 267 3.5 05:08:59 10° SSE 05:15:13 47° SW 05:16:51 40° W
ADEOS II 3.2 05:11:19 10° N 05:14:20 28° NNW 05:14:20 28° NNW
CZ-4C R/B 2.9 05:10:58 22° NW 05:16:04 68° WSW 05:24:03 10° SSE
Cosmos 44 3.5 05:17:44 47° SW 05:17:44 47° SW 05:21:51 10° S
Milstar 3 3.5 05:16:48 30° SW 05:19:08 39° S 05:26:16 10° ESE
Meteor PRIRODA 3.6 05:18:11 10° NNE 05:21:58 87° ESE 05:23:48 29° S
Okean O Rocket 1.6 05:18:04 10° N 05:22:22 55° WNW 05:22:26 55° WNW
Shenzhou-11 Module 2.8 05:26:13 45° SSE 05:26:13 45° SSE 05:28:32 10° SE
CZ-2C R/B 4.1 05:23:52 10° SSE 05:28:35 68° ENE 05:33:17 10° N
Cosmos 372 Rocket 4.3 05:23:33 10° S 05:28:41 68° ESE 05:33:54 10° NNE
Cosmos 1758 Rocket 3.9 05:32:45 42° W 05:32:53 42° W 05:37:09 10° N
IRS-1C Rocket 4.0 05:29:29 10° N 05:34:44 67° WNW 05:39:56 10° SSW
Okean-O 3.8 05:31:49 10° NNE 05:36:05 45° E 05:40:19 10° S
Cosmos-2242 2.9 05:31:56 10° N 05:36:15 88° W 05:40:33 10° S
Cosmos 44 Rocket 3.9 05:38:36 33° WSW 05:38:54 33° WSW 05:43:18 10° S
Cosmos 1125 Rocket 3.4 05:33:52 10° SSW 05:39:06 86° WNW 05:44:25 10° NNE
ERBS 4.4 05:38:40 11° NNW 05:41:21 25° NE 05:44:18 10° E
Meteor 1-24 Rocket 4.0 05:39:33 10° S 05:45:34 80° E 05:51:32 10° N
Cosmos 2366 rocket 4.5 05:40:10 10° N 05:46:16 62° E 05:52:21 10° SSE
Cosmos 2154 Rocket 4.4 05:41:40 10° NNW 05:47:29 40° W 05:53:16 10° SSW
COSMO-SKYMED 1 3.6 05:46:30 10° SSE 05:50:40 48° ENE 05:54:51 10° N
MTI 3.8 05:48:06 10° SSE 05:51:20 79° E 05:54:36 10° N
Meteor 1-31 Rocket 3.0 05:49:01 10° N 05:52:38 42° WNW 05:56:13 10° SW
Cosmos 2227 Rocket 3.8 05:49:38 10° N 05:54:48 35° ENE 05:59:55 10° SE
SL-8 Rocket 4.0 05:53:43 10° N 06:00:02 75° W 06:06:19 10° S
Cosmos 1707 4.3 06:01:41 18° WNW 06:01:41 18° WNW 06:03:38 10° NNW
Feng Yun 1-1 Rocket 4.3 05:56:18 10° NNE 06:01:57 88° WNW 06:07:43 10° SSW
Cosmos 2221 4.4 06:04:09 10° NNE 06:08:10 34° ENE 06:12:08 10° SE
Cosmos 1842 Rocket 3.6 06:03:49 10° N 06:08:12 82° E 06:12:31 10° S
Cosmos 1048 Rocket 3.9 06:06:14 10° NNW 06:11:24 70° WSW 06:16:37 10° S
Cosmos 864 Rocket 4.4 06:10:24 10° N 06:16:36 78° W 06:22:44 10° S
GPS 2-04 Rocket1 3.8 06:16:07 14° WSW 06:18:44 27° SSW 06:21:51 10° SE
SKYMED 3 4.5 06:16:21 10° S 06:20:40 75° WSW 06:25:00 10° NNW
Cosmos 2219 3.4 06:15:24 10° NNW 06:20:51 50° WSW 06:26:15 10° S
Cosmos 1908 3.9 06:17:48 10° N 06:21:36 59° E 06:25:22 10° SSE
EO 1 Del DPAF 3.5 06:18:54 10° S 06:22:35 47° W 06:26:18 10° NNW
CZ-2C R/B 3.1 06:17:53 10° NNE 06:22:49 61° E 06:27:50 10° S
Cosmos 2084 Rocket 3.9 06:20:03 10° SSW 06:24:22 66° ESE 06:28:29 10° NE
Cosmos 2218 Rocket 4.1 06:18:54 10° NNW 06:24:58 56° W 06:31:06 10° SSW
SJ 16-02 2.2 06:23:26 10° SW 06:27:17 30° WNW 06:31:10 10° N
Okean 3 Rocket 4.3 06:24:20 10° S 06:28:44 59° E 06:33:08 10° NNE
MINOTAUR R/B 4.2 06:28:45 10° NNW 06:31:23 58° WSW 06:33:58 10° S
Meteor 2-8 Rocket 4.4 06:25:57 10° SSW 06:32:04 69° W 06:38:11 10° N
Cosmos 2297 Rocket 2.9 06:27:15 10° NNW 06:32:50 59° ENE 06:38:23 10° SE
OAO 2 Rocket 3.9 06:30:55 10° W 06:35:40 44° SSW 06:40:21 10° SE
Meteor 2-1 Rocket 4.4 06:30:35 10° NNW 06:36:24 61° W 06:42:06 10° S
SKYMED 2 3.9 06:34:32 10° S 06:38:41 45° W 06:42:52 10° NNW
Cosmos 2082 4.2 06:34:13 10° NNW 06:39:52 66° ENE 06:45:26 10° SSE
Cosmos 1656 3.9 06:34:29 10° SSW 06:40:10 83° ESE 06:45:54 10° NNE
Cosmos 1697 Rocket 3.6 06:36:27 10° S 06:41:58 56° ESE 06:47:30 10° NNE
ATLAS 2AS CENTAUR R/B 4.0 06:37:13 10° S 06:44:33 56° ESE 06:52:24 10° NE
